Weather reports worldwide

Advertisment
Voorschoten AWS, Netherlands (6215): temperature & dewpoint: 07.08.2020 02:00:00 - 13.08.2020 02:00:00 (CEST)Voorschoten AWS, Netherlands (6215): temperature 5cm: 07.08.2020 02:00:00 - 13.08.2020 02:00:00 (CEST)Voorschoten AWS, Netherlands (6215): wind speed & gusts: 07.08.2020 02:00:00 - 13.08.2020 02:00:00 (CEST)Voorschoten AWS, Netherlands (6215): wind direction: 07.08.2020 02:00:00 - 13.08.2020 02:00:00 (CEST)Voorschoten AWS, Netherlands (6215): reduced air pressure: 07.08.2020 02:00:00 - 13.08.2020 02:00:00 (CEST)Voorschoten AWS, Netherlands (6215): visibility: 07.08.2020 02:00:00 - 13.08.2020 02:00:00 (CEST)
Date & Time tt [°C] td [°C] tt 5cm [°C] ff [km/h] ff [kn] fx [km/h] fx [kn] dd ppp [hPa] vv [km]
13.08.2020 02:00:00 - - - - - - - - - -
13.08.2020 01:00:00 - - - - - - - - - -
13.08.2020 00:00:00 - - - - - - - - - -
12.08.2020 23:00:00 - - - - - - - - - -
12.08.2020 22:00:00 - - - - - - - - - -
12.08.2020 21:00:00 - - - - - - - - - -
12.08.2020 20:00:00 - - - - - - - - - -
12.08.2020 19:00:00 - - - - - - - - - -
12.08.2020 18:00:00 - - - - - - - - - -
12.08.2020 17:00:00 - - - - - - - - - -
12.08.2020 16:00:00 - - - - - - - - - -
12.08.2020 15:00:00 - - - - - - - - - -
12.08.2020 14:00:00 - - - - - - - - - -
12.08.2020 13:00:00 - - - - - - - - - -
12.08.2020 12:00:00 - - - - - - - - - -
12.08.2020 11:00:00 - - - - - - - - - -
12.08.2020 10:00:00 - - - - - - - - - -
12.08.2020 09:00:00 - - - - - - - - - -
12.08.2020 08:00:00 - - - - - - - - - -
12.08.2020 07:00:00 - - - - - - - - - -
12.08.2020 06:00:00 - - - - - - - - - -
12.08.2020 05:00:00 - - - - - - - - - -
12.08.2020 04:00:00 - - - - - - - - - -
12.08.2020 03:00:00 - - - - - - - - - -
12.08.2020 02:00:00 - - - - - - - - - -
12.08.2020 01:00:00 - - - - - - - - - -
12.08.2020 00:00:00 - - - - - - - - - -
11.08.2020 23:00:00 - - - - - - - - - -
11.08.2020 22:00:00 - - - - - - - - - -
11.08.2020 21:00:00 - - - - - - - - - -
11.08.2020 20:00:00 - - - - - - - - - -
11.08.2020 19:00:00 - - - - - - - - - -
11.08.2020 18:00:00 - - - - - - - - - -
11.08.2020 17:00:00 - - - - - - - - - -
11.08.2020 16:00:00 - - - - - - - - - -
11.08.2020 15:00:00 - - - - - - - - - -
11.08.2020 14:00:00 - - - - - - - - - -
11.08.2020 13:00:00 - - - - - - - - - -
11.08.2020 12:00:00 - - - - - - - - - -
11.08.2020 11:00:00 - - - - - - - - - -
11.08.2020 10:00:00 - - - - - - - - - -
11.08.2020 09:00:00 - - - - - - - - - -
11.08.2020 08:00:00 - - - - - - - - - -
11.08.2020 07:00:00 - - - - - - - - - -
11.08.2020 06:00:00 - - - - - - - - - -
11.08.2020 05:00:00 - - - - - - - - - -
11.08.2020 04:00:00 - - - - - - - - - -
11.08.2020 03:00:00 - - - - - - - - - -
11.08.2020 02:00:00 - - - - - - - - - -
11.08.2020 01:00:00 - - - - - - - - - -
11.08.2020 00:00:00 - - - - - - - - - -
10.08.2020 23:00:00 - - - - - - - - - -
10.08.2020 22:00:00 - - - - - - - - - -
10.08.2020 21:00:00 - - - - - - - - - -
10.08.2020 20:00:00 - - - - - - - - - -
10.08.2020 19:00:00 - - - - - - - - - -
10.08.2020 18:00:00 - - - - - - - - - -
10.08.2020 17:00:00 - - - - - - - - - -
10.08.2020 16:00:00 - - - - - - - - - -
10.08.2020 15:00:00 - - - - - - - - - -
10.08.2020 14:00:00 - - - - - - - - - -
10.08.2020 13:00:00 - - - - - - - - - -
10.08.2020 12:00:00 - - - - - - - - - -
10.08.2020 11:00:00 - - - - - - - - - -
10.08.2020 10:00:00 - - - - - - - - - -
10.08.2020 09:00:00 - - - - - - - - - -
10.08.2020 08:00:00 21,8 17,3 21,5 12 7 - - ENE 1015,1 32
10.08.2020 07:00:00 21,0 17,1 20,1 14 8 22 12 ENE 1015,1 27
10.08.2020 06:00:00 20,1 17,0 17,8 7 4 14 8 ENE 1015,3 33
10.08.2020 05:00:00 20,1 17,0 18,4 7 4 18 10 E 1015,5 35
10.08.2020 04:00:00 21,1 17,1 19,9 11 6 25 14 E 1015,8 28
10.08.2020 03:00:00 22,2 17,3 21,2 14 8 25 14 E 1015,7 17
10.08.2020 02:00:00 22,4 18,3 21,4 14 8 25 14 ENE 1015,4 35
10.08.2020 01:00:00 23,1 18,2 22,1 18 10 25 14 NE 1015,7 35
10.08.2020 00:00:00 24,0 18,1 22,8 14 8 25 14 NE 1015,8 45
09.08.2020 23:00:00 24,8 17,9 23,6 14 8 25 14 NE 1015,9 45
09.08.2020 22:00:00 25,8 17,5 24,5 18 10 29 16 NE 1015,9 40
09.08.2020 21:00:00 27,2 18,1 26,1 22 12 32 18 NE 1015,6 31
09.08.2020 20:00:00 28,4 18,5 27,6 22 12 29 16 NE 1015,5 37
09.08.2020 19:00:00 29,3 18,5 29,0 22 12 32 18 NE 1015,3 33
09.08.2020 18:00:00 30,0 18,8 30,2 22 12 32 18 ENE 1016,0 27
09.08.2020 17:00:00 30,3 19,9 31,0 22 12 32 18 NE 1016,4 34
09.08.2020 16:00:00 30,2 19,0 31,3 22 12 36 19 ENE 1016,8 28
09.08.2020 15:00:00 30,5 18,1 31,6 22 12 36 19 ENE 1017,1 27
09.08.2020 14:00:00 30,3 17,9 31,4 25 14 36 19 NE 1017,4 25
09.08.2020 13:00:00 29,8 18,6 30,8 18 10 32 18 NE 1017,9 27
09.08.2020 12:00:00 29,2 20,1 30,2 14 8 25 14 NE 1018,3 31
09.08.2020 11:00:00 27,3 19,8 28,6 11 6 22 12 NE 1018,4 16
09.08.2020 10:00:00 24,3 19,5 24,3 7 4 14 8 NNE 1018,7 14
09.08.2020 09:00:00 23,1 19,8 22,9 7 4 14 8 N 1018,7 15
09.08.2020 08:00:00 23,1 19,1 22,2 7 4 14 8 NE 1018,6 17
09.08.2020 07:00:00 21,4 18,6 19,2 4 2 11 6 NNE 1018,5 20
09.08.2020 06:00:00 20,8 18,4 17,9 4 2 7 4 ENE 1018,4 21
09.08.2020 05:00:00 21,3 18,2 18,1 4 2 11 6 NE 1018,5 23
09.08.2020 04:00:00 23,2 18,0 21,1 7 4 14 8 NE 1018,6 30
09.08.2020 03:00:00 24,2 18,3 22,9 11 6 18 10 E 1018,6 28
09.08.2020 02:00:00 24,7 18,2 23,3 11 6 18 10 E 1018,8 34
09.08.2020 01:00:00 25,1 18,0 24,1 11 6 22 12 ENE 1019,0 36
09.08.2020 00:00:00 26,0 17,1 24,5 14 8 22 12 ENE 1018,7 41
08.08.2020 23:00:00 25,5 16,4 23,8 14 8 18 10 NE 1019,0 39
08.08.2020 22:00:00 26,7 14,6 25,2 14 8 25 14 ENE 1019,3 26
08.08.2020 21:00:00 27,8 15,1 26,4 14 8 22 12 NE 1019,0 39
08.08.2020 20:00:00 26,3 18,9 25,6 7 4 22 12 N 1019,0 34
08.08.2020 19:00:00 27,4 17,6 27,2 14 8 22 12 N 1019,2 36
08.08.2020 18:00:00 29,0 18,4 29,2 11 6 18 10 N 1019,2 36
08.08.2020 17:00:00 29,3 17,6 29,5 11 6 22 12 NNW 1019,3 41
08.08.2020 16:00:00 30,1 15,1 30,4 18 10 25 14 NNW 1019,5 31
08.08.2020 15:00:00 30,1 16,1 31,3 22 12 25 14 NNW 1019,6 33
08.08.2020 14:00:00 32,9 15,0 35,0 11 6 18 10 SE 1019,5 35
08.08.2020 13:00:00 32,7 15,9 34,9 11 6 14 8 SE 1019,7 34
08.08.2020 12:00:00 32,1 16,9 33,9 4 2 11 6 E 1019,7 35
08.08.2020 11:00:00 30,3 16,2 32,0 4 2 7 4 SE 1019,8 32
08.08.2020 10:00:00 28,4 16,0 29,4 4 2 7 4 ESE 1019,9 37
08.08.2020 09:00:00 26,0 16,7 25,6 4 2 4 2 E 1019,7 21
08.08.2020 08:00:00 20,7 18,6 20,0 0 0 4 2 N 1019,4 16
08.08.2020 07:00:00 16,6 16,4 12,7 4 2 4 2 SE 1019,3 1,9
08.08.2020 06:00:00 16,6 16,6 11,6 4 2 4 2 W 1019,2 2,5
08.08.2020 05:00:00 16,8 16,5 12,0 0 0 4 2 N 1018,9 18
08.08.2020 04:00:00 17,1 16,7 13,0 0 0 4 2 N 1018,8 18
08.08.2020 03:00:00 17,4 16,9 13,5 4 2 4 2 WNW 1018,9 23
08.08.2020 02:00:00 17,9 16,0 15,2 0 0 4 2 N 1018,9 29
08.08.2020 01:00:00 18,4 17,5 14,2 4 2 7 4 ENE 1019,0 27
08.08.2020 00:00:00 19,1 17,6 14,3 0 0 4 2 N 1018,8 24
07.08.2020 23:00:00 20,6 19,2 15,4 0 0 4 2 N 1019,0 31
07.08.2020 22:00:00 22,1 18,2 17,4 4 2 7 4 N 1019,1 40
07.08.2020 21:00:00 24,4 17,7 22,8 7 4 11 6 NNW 1018,6 32
07.08.2020 20:00:00 28,1 18,7 28,1 11 6 14 8 N 1018,3 44
07.08.2020 19:00:00 29,3 17,3 29,9 11 6 18 10 N 1018,3 40
07.08.2020 18:00:00 30,2 17,5 31,2 14 8 18 10 N 1018,6 36
07.08.2020 17:00:00 31,6 18,2 33,3 7 4 14 8 N 1018,8 26
07.08.2020 16:00:00 32,5 14,8 35,4 4 2 14 8 S 1019,0 27
07.08.2020 15:00:00 32,1 15,4 34,6 7 4 14 8 SE 1019,3 42
07.08.2020 14:00:00 31,5 14,3 34,2 7 4 14 8 E 1019,5 40
07.08.2020 13:00:00 30,6 17,4 32,7 11 6 14 8 SE 1019,8 36
07.08.2020 12:00:00 29,4 17,8 31,7 7 4 14 8 E 1019,9 27
07.08.2020 11:00:00 27,3 17,7 29,4 7 4 14 8 E 1020,0 26
07.08.2020 10:00:00 25,5 17,1 26,7 4 2 11 6 ESE 1020,0 20
07.08.2020 09:00:00 23,2 16,6 24,0 7 4 11 6 ESE 1019,9 20
07.08.2020 08:00:00 20,4 17,0 19,2 7 4 7 4 ESE 1019,7 20
07.08.2020 07:00:00 16,0 16,0 11,7 4 2 4 2 SE 1019,6 0,4
07.08.2020 06:00:00 15,4 15,1 10,7 4 2 4 2 S 1019,1 0,3
07.08.2020 05:00:00 16,1 15,9 11,5 4 2 4 2 SE 1019,1 0,3
07.08.2020 04:00:00 17,1 16,8 13,1 0 0 7 4 N 1019,2 12
07.08.2020 03:00:00 17,8 17,3 14,7 4 2 11 6 ESE 1019,4 14
07.08.2020 02:00:00 19,2 17,3 17,1 4 2 14 8 E 1019,5 25

tt = temperature
td = dewpoint
tt 5cm = temperature 5cm
ff = wind speed
fx = gusts
dd = wind direction
ppp = reduced air pressure
vv = visibility

Next stations